Regional Weather Roundup
Issued by NWS

Home | Current Version | Previous Version | Text Only | Print | Product List | Glossary Off
Versions: 1 2 3 4 5 6 7 8 9 10 11 12 13 14 15 16 17 18 19 20 21 22 23 24 25 26 27 28 29 30 31 32 33 34 35 36 37 38 39 40 41 42 43 44 45 46 47 48 49 50

000
ASUS43 KMPX 061310
RWRMN
WEATHER ROUNDUP FOR MINNESOTA
NATIONAL WEATHER SERVICE TWIN CITIES/CHANHASSEN MN
700 AM CST FRI MAR 06 2015


NOTE: "FAIR" INDICATES FEW OR NO CLOUDS BELOW 12,000 FEET WITH NO
SIGNIFICANT WEATHER AND/OR OBSTRUCTIONS TO VISIBILITY. N/A MEANS
CURRENT SKY AND/OR WEATHER CONDITIONS ARE NOT AVAILABLE.

MNZ060>063-068>070-061400-
   Twin Cities Metro

CITY           SKY/WX    TMP DP  RH WIND       PRES   REMARKS
TWIN CITIES    MOCLDY    14   4  64 S7        30.08F WCI   4
ST PAUL        CLOUDY    12   3  67 S9        30.11F WCI   0
CRYSTAL        MOCLDY    16   5  62 S9        30.06F WCI   4
BLAINE         CLOUDY    16   7  67 S7        30.06F WCI   6
LAKEVILLE      CLEAR      9   1  72 S5        30.09F WCI   0
EDEN PRAIRIE   MOCLDY    14   5  67 S10       30.07F WCI   1
SOUTH ST PAUL  CLOUDY    13   4  65 S8        30.10F WCI   2
LAKE ELMO      CLOUDY    12   5  73 S10       30.09F WCI  -1
$$
MNZ001>005-007-008-013>017-022>024-027-028-061400-
   Northwest Minnesota

CITY           SKY/WX    TMP DP  RH WIND       PRES   REMARKS
BEMIDJI        CLEAR      7   3  84 W6        29.95R WCI  -3
HALLOCK        PTCLDY     5   1  85 W7        29.99S WCI  -7
ROSEAU         CLEAR     10   7  85 W7        29.95S WCI   0
WARROAD        CLEAR      9   5  85 W7        29.94S WCI  -3
THIEF RVR FALL MOCLDY     9   3  78 W5        30.00R WCI   0
CROOKSTON      FAIR       7   3  85 NW5       30.04R WCI  -2
FOSSTON        PTCLDY     0  -4  85 CALM      29.99R
DETROIT LAKES  CLEAR     14  10  85 NW7       30.00R WCI   4
MOORHEAD       CLEAR     14  10  85 NW7       30.04R WCI   4
PARK RAPIDS    CLEAR      4   0  83 W5        29.95R WCI  -5
MAHNOMEN       FAIR       7   4  86 W5        29.99R WCI  -1
$$
MNZ006-009>011-018-025>026-061400-
   North Central Minnesota

CITY           SKY/WX    TMP DP  RH WIND       PRES   REMARKS
BAUDETTE       CLEAR     11   4  73 W7        29.90R WCI   0
FLAG ISLAND    CLEAR     10   5  79 W10       29.91R WCI  -3
INTL FALLS     CLEAR     11   4  73 W8        29.88R WCI  -1
WASKISH        CLEAR     10   7  85 SW9       29.94R WCI  -2
BIG FORK       FAIR       7   1  78 W3        29.92R
LONGVILLE      CLEAR      5   1  85 CALM      29.96R
GRAND RAPIDS   CLEAR      9   1  72 S6        29.92S WCI  -1
CRANE LAKE     CLEAR      9   1  72 S3        29.91S
ORR            CLEAR      9   0  66 CALM      29.87S
COOK           CLEAR      9   3  78 SW7       29.90S WCI  -3
WALKER         FAIR      11   4  73 W6        29.95R WCI   2
$$
MNZ012-019>021-037-061400-
   Northeast Minnesota

CITY           SKY/WX    TMP DP  RH WIND       PRES   REMARKS
DULUTH         PTCLDY    10   2  69 W15       29.93S WCI  -7
ELY            CLOUDY     9   1  72 SW6       29.89S WCI  -1
HIBBING        FAIR      10   2  69 SW5       29.92F WCI   2
EVELETH        PTCLDY    12   5  73 SW6       29.93S WCI   3
DULUTH HARBOR  CLOUDY    16   5  62 SW8       30.01F WCI   5
TWO HARBORS    CLOUDY    10   3  72 SW7       29.93F WCI   0
SILVER BAY     MOCLDY    10   1  67 SW3       29.92F
GRAND MARAIS     N/A     17   9  70 VRB6      29.94F WCI   9
G MARAIS ARPRT CLOUDY     9   0  66 SW6       29.84F WCI  -1
$$
MNZ029>031-032-039>041-046>048-054>057-064-061400-
   West Central Minnesota

CITY           SKY/WX    TMP DP  RH WIND       PRES   REMARKS
FERGUS FALLS   CLEAR      9   1  72 W5        30.06R WCI   0
WHEATON        CLEAR     16   9  73 W8        30.06R WCI   5
MORRIS         CLEAR     10   7  85 W6        30.02S WCI   1
ALEXANDRIA     CLEAR     12   6  77 SW9       29.99S WCI   0
ELBOW LAKE     FAIR      10   5  80 W7        30.01S WCI  -1
WADENA         CLEAR     10   7  85 W8        29.96F WCI  -1
GLENWOOD       FAIR       9   5  85 SW8       30.01S WCI  -4
APPLETON       CLEAR     12   9  85 W8        30.04S WCI   1
BENSON         CLEAR      9   3  78 CALM      30.03S
ORTONVILLE     CLEAR     21  10  63 W10       30.04S WCI  10
MADISON        CLEAR     18  10  73 CALM      30.04S
WILLMAR        FAIR      12   7  79 CALM      30.04S
$$
MNZ033>034-036-042>043-049>051-058-059-061400-
   Central Minnesota

CITY           SKY/WX    TMP DP  RH WIND       PRES   REMARKS
ST CLOUD       CLOUDY    13   6  74 S8        30.02F WCI   2
SAUK CENTRE    FAIR      11   6  79 SW3       30.01S
PAYNESVILLE    CLEAR     10   5  82 S5        30.02S WCI   1
AITKIN         CLEAR     16   7  67 CALM      29.96R
PINE RIVER     CLEAR      3   1  92 CALM      30.00R
BRAINERD       CLEAR      9   3  77 SW7       29.98R WCI  -2
STAPLES        CLEAR      9   3  78 CALM      29.97R
LONG PRAIRIE   FAIR      12   7  79 S7        29.99S WCI   2
LITTLE FALLS   CLEAR     12   5  73 CALM      30.00S
LITCHFIELD     CLEAR     12   7  79 CALM      30.03F
BUFFALO        PTCLDY    14   6  72 S7        30.05F WCI   3
MAPLE LAKE     PTCLDY    14   8  78 S8        30.03F WCI   3
$$
MNZ037-044-045-052-053-061400-
   East Central Minnesota

CITY           SKY/WX    TMP DP  RH WIND       PRES   REMARKS
PRINCETON      CLOUDY    16   7  67 S9        30.02F WCI   4
MORA           MOCLDY    14   5  67 S7        30.02F WCI   4
CAMBRIDGE      CLOUDY    16   5  62 S8        30.01F WCI   5
RUSH CITY      CLOUDY    12   3  67 S8        30.03F WCI   1
MOOSE LAKE     CLOUDY    10   3  72 SW8       29.98S WCI  -1
HINCKLEY       CLOUDY    12   5  73 S6        30.02S WCI   3
CLOQUET        CLOUDY    10   1  67 SW7       29.96R WCI   0
MCGREGOR       PTCLDY    14   9  79 SW5       29.97S WCI   6
$$
MNZ071>073-080-081-089-090-097-098-061400-
   Southwest Minnesota

CITY           SKY/WX    TMP DP  RH WIND       PRES   REMARKS
MONTEVIDEO     CLEAR     18  10  73 W6        30.06R WCI   9
GRANITE FALLS  CLEAR     19  11  73 SW7       30.06S WCI   9
CANBY          PTCLDY    25  14  63 W15       30.04S WCI  12
MARSHALL       CLEAR     21   9  58 W13       30.05F WCI   9
REDWOOD FALLS  CLEAR     16   9  74 SW5       30.05F WCI   9
OLIVIA         CLEAR     14   9  79 S7        30.04S WCI   4
PIPESTONE      CLEAR     12   7  79 SW5       30.07R WCI   4
WINDOM         CLEAR     18  10  73 SW9       30.07S WCI   6
WORTHINGTON    PTCLDY    18   9  68 SW13      30.09S WCI   4
JACKSON        CLEAR     19  10  68 SW13      30.07F WCI   7
TRACY          CLEAR     20  12  69 SW13      30.05S WCI   8
SLAYTON        PTCLDY    17   8  67 CALM      30.06S
$$
MNZ065>067-074>077-082>085-091>093-061400-
   South Central Minnesota

CITY           SKY/WX    TMP DP  RH WIND       PRES   REMARKS
MANKATO        CLEAR     12   1  62 S9        30.08F WCI   0
NEW ULM        PTCLDY    12   7  79 S5        30.07F WCI   4
ST JAMES       PTCLDY    18  10  73 S3        30.09S
FAIRMONT       CLEAR     16   9  73 S12       30.07F WCI   3
GLENCOE        CLOUDY    14   9  79 S7        30.06F WCI   4
FARIBAULT      CLEAR      9   1  72 S7        30.10F WCI  -3
OWATONNA       CLEAR      9   1  72 S7        30.10F WCI  -3
WASECA         CLEAR     12   5  73 S7        30.12S WCI   2
ALBERT LEA     CLEAR     10   3  72 S6        30.11F WCI   1
$$
MNZ078>079-086>088-094>096-061400-
   Southeast Minnesota

CITY           SKY/WX    TMP DP  RH WIND       PRES   REMARKS
ROCHESTER      CLEAR      8   1  73 S17G25    30.11F WCI -10
RED WING       CLEAR     10   0  61 S5        30.12F WCI   2
STANTON        CLEAR     12   3  69 S9        30.08F WCI  -1
DODGE CENTER   PTCLDY    10   3  72 S15       30.08F WCI  -6
WINONA         CLEAR     12   3  67 SE3       30.19F
AUSTIN         CLEAR      9   1  72 S10       30.12F WCI  -6
PRESTON        CLEAR      8   1  75 S21G26    30.13F WCI -12
$$
ABBREVIATIONS USED IN REMARKS
   TC - TEMPERATURES IN CELSIUS
  WCI - WIND CHILL INDEX
   HX - HEAT INDEX
  VSB - VISIBILITY
$$



USA.gov is the U.S. government's official web portal to all federal, state and local government web resources and services.